Weather in Saryshagan

Kazakhstan     46°06′55″N   73°37′09″E
temp.,
°C
wind,
m/s
gust,
m/s
humid.,
%
clouds,
%
prec.,
mm/h
press.,
hPa
HPBL,
m
12 april, mon
mon1200:00+8ne1019390 0.0 1024467
03:00+6ne1019490 0.0 1024455
06:00+5ne1018530 0.0 1024392
09:00+7ne1016450 0.0 1026432
12:00+11ene1217340 0.0 1025604
15:00+15ene1014240 0.0 1023981
18:00+15ne914240 0.0 1023566
21:00+10ene511370 0.0 1024157
13 april, tue
tue1300:00+8ne613410 0.0 1023186
03:00+7ne715490 0.0 1024234
06:00+6ne715550 0.0 1024258
09:00+9ne915430 0.0 1025432
12:00+13ene1116320 0.0 1025615
15:00+16ene1115230 0.0 1024962
18:00+15ene81426100 0.0 1025628
21:00+11ene91839100 0.0 1026347
14 april, wed
wed1400:00+9ene112038100 0.0 1027500
03:00+6ene101873100 0.0 1028541
06:00+5ne101964100 0.0 1028547
09:00+6ene11195390 0.0 1029613
12:00+10ene11163491 0.0 1027697
15:00+14ene101522100 0.0 1024886
18:00+13ene81527100 0.0 1022489
21:00+9ene6144071 0.0 1023216
15 april, thu
thu1500:00+8ene8174616 0.0 1022314
03:00+6ene918544 0.0 1021408
06:00+5ne9186033 0.0 1021389
09:00+7ene1017505 0.0 1021470
12:00+11ene914385 0.0 1019534
15:00+16ene912260 0.0 1016657
18:00+15ene8142896 0.0 1015408
21:00+11ene6133852 0.0 1015188
16 april, fri
fri1600:00+10ene51442100 0.0 1014233
03:00+8ne61250100 0.0 1015185
06:00+7ne51055100 0.0 1016175
09:00+8ene4750100 0.0 1016152
12:00+12ene4438100 0.0 1016224
15:00+15sw1231100 0.0 1015337
18:00+17se233736 0.0 1015217
21:00+10se46500 0.0 101694